Hayward, WI

6:28 AM CDT on September 25, 2016 (GMT -0500)
Sawyer County

Weather History for KHYR - May, 2013

Change the Weather History Date:

Wednesday, May 8, 2013

  Actual Average Record
Temperature  
Mean Temperature 55 °F -  
Max Temperature 75 °F 70 °F 80 °F (2007)
Min Temperature 37 °F 48 °F 32 °F (2008)
Degree Days  
Heating Degree Days 10    
Growing Degree Days 5 (Base 50)    
Moisture  
Dew Point 45 °F    
Average Humidity 67    
Maximum Humidity 93    
Minimum Humidity 30    
Precipitation  
Precipitation 0.05 in - - ()
Sea Level Pressure  
Sea Level Pressure 30.02 in    
Wind  
Wind Speed 1 mph (ENE)    
Max Wind Speed 7 mph    
Max Gust Speed -    
Visibility 10 miles    
Events Rain    
Averages and records for this station are not official NWS values.
T = Trace of Precipitation, MM = Missing Value Source: NWS Daily Summary

Daily Weather History Graph

Daily Weather History Graph

Search for Another Location

Airport or City:

Trip Planner

Search our weather history database for the weather conditions in past years. The results will help you decide how hot, cold, wet, or windy it might be!

Date:

Astronomy

May. 08, 2013 Rise Set
Actual Time 5:42 AM CDT 8:23 PM CDT
Civil Twilight 5:08 AM CDT 8:57 PM CDT
Nautical Twilight 4:24 AM CDT 9:40 PM CDT
Astronomical Twilight 3:35 AM CDT 10:31 PM CDT
Moon 4:54 AM CDT (5/8) 7:19 PM CDT (5/8)
Length of Visible Light 15h 49m
Length of Day
14h 41m
Waning Crescent, 2% of the Moon is Illuminated
May 8
Waning Crescent
May 9
New
May 17
First Quarter
May 24
Full
May 31
Last Quarter

Hourly Weather History & Observations

Time (CDT) Temp. Dew Point Humidity Pressure Visibility Wind Dir Wind Speed Gust Speed Precip Events Conditions
12:53 AM 43.0 °F 37.9 °F 82% 30.00 in 10.0 mi Calm Calm - N/A   Clear
1:53 AM 41.0 °F 37.0 °F 86% 30.00 in 10.0 mi Calm Calm - N/A   Clear
2:53 AM 39.0 °F 36.0 °F 89% 30.00 in 10.0 mi Calm Calm - N/A   Clear
3:53 AM 37.9 °F 35.1 °F 89% 30.01 in 10.0 mi Calm Calm - N/A   Clear
4:53 AM 37.0 °F 35.1 °F 93% 30.01 in 10.0 mi Calm Calm - N/A   Clear
5:53 AM 37.0 °F 34.0 °F 89% 30.02 in 10.0 mi Calm Calm - N/A   Clear
6:53 AM 42.1 °F 37.9 °F 85% 30.02 in 10.0 mi Calm Calm - N/A   Clear
7:53 AM 53.1 °F 42.1 °F 66% 30.03 in 10.0 mi Calm Calm - N/A   Scattered Clouds
8:53 AM 66.0 °F 46.0 °F 48% 30.03 in 10.0 mi Calm Calm - N/A   Partly Cloudy
9:53 AM 71.1 °F 46.0 °F 41% 30.03 in 10.0 mi Calm Calm - N/A   Clear
10:53 AM 73.9 °F 46.0 °F 37% 30.02 in 10.0 mi South 5.8 mph - N/A   Clear
11:53 AM 73.0 °F 44.1 °F 35% 30.02 in 10.0 mi SSW 3.5 mph - N/A   Overcast
12:53 PM 73.9 °F 41.0 °F 30% 30.01 in 10.0 mi SSW 3.5 mph - N/A   Clear
1:53 PM 71.1 °F 46.9 °F 42% 30.02 in 10.0 mi Calm Calm - N/A   Mostly Cloudy
2:53 PM 61.0 °F 54.0 °F 78% 30.06 in 3.0 mi East 6.9 mph - 0.03 in Rain Light Rain
3:53 PM 66.0 °F 55.0 °F 68% 30.03 in 10.0 mi Calm Calm - 0.00 in   Scattered Clouds
4:53 PM 69.1 °F 52.0 °F 54% 30.01 in 10.0 mi Calm Calm - N/A   Mostly Cloudy
5:53 PM 68.0 °F 50.0 °F 52% 30.01 in 10.0 mi NNE 3.5 mph - N/A   Overcast
6:53 PM 64.9 °F 51.1 °F 61% 30.01 in 10.0 mi Calm Calm - 0.00 in Rain Light Rain
7:53 PM 62.1 °F 51.1 °F 67% 30.02 in 10.0 mi Calm Calm - 0.00 in   Overcast
8:53 PM 60.1 °F 51.1 °F 72% 30.04 in 10.0 mi ENE 6.9 mph - 0.02 in Rain Light Rain
9:53 PM 59.0 °F 51.1 °F 75% 30.03 in 10.0 mi NNE 4.6 mph - 0.00 in   Overcast
10:53 PM 57.9 °F 51.1 °F 78% 30.01 in 10.0 mi NNE 4.6 mph - 0.00 in Rain Light Rain
11:53 PM 55.9 °F 50.0 °F 80% 30.01 in 10.0 mi NNE 4.6 mph - 0.00 in   Mostly Cloudy